Chillicothe, MO

8:06 PM CST on November 15, 2019 (GMT -0600)
Chillicothe

Weather History for KCDJ - September, 2019

Change the Weather History Date:

Monday, September 2, 2019

  Actual Average (WUND) Record (WUND)
Temperature  
Mean Temperature 72 °F -  
Max Temperature 82 °F - - (-1)
Min Temperature 61 °F - - (-1)
Cooling Degree Days 6    
Growing Degree Days 22 (Base 50)    
Moisture  
Dew Point 67 °F    
Average Humidity 85    
Maximum Humidity 100    
Minimum Humidity 67    
Precipitation  
Precipitation 0.00 in - - ()
Sea Level Pressure  
Sea Level Pressure 30.07 in    
Wind  
Wind Speed 2 mph (South)    
Max Wind Speed 8 mph    
Max Gust Speed -    
Averages and records for this station are not official NWS values.
T = Trace of Precipitation, MM = Missing Value Source: NWS Daily Summary

Daily Weather History Graph

Daily Weather History Graph

Search for Another Location

Airport or City:

Astronomy

Sep. 02, 2019 Rise Set
Actual Time 6:43 AM CDT 7:44 PM CDT
Civil Twilight 6:15 AM CDT 8:11 PM CDT
Nautical Twilight 5:42 AM CDT 8:44 PM CDT
Astronomical Twilight 5:08 AM CDT 9:18 PM CDT
Moon 10:25 AM CDT (9/2) 10:06 PM CDT (9/2)
Length of Visible Light 13h 56m
Length of Day
13h 01m
Waxing Crescent, 15% of the Moon is Illuminated
Sep 2
Waxing Crescent
Sep 5
First Quarter
Sep 13
Full
Sep 21
Last Quarter
Sep 28
New

Hourly Weather History & Observations

Time (CDT) Temp. Heat Index Dew Point Humidity Pressure Visibility Wind Dir Wind Speed Gust Speed Precip Events Conditions
12:52 AM 64.0 °F - 63.0 °F 96% 30.11 in - Calm Calm - N/A   Unknown
1:52 AM 64.0 °F - 62.1 °F 93% 30.11 in - Calm Calm - N/A   Unknown
2:52 AM 63.0 °F - 62.1 °F 97% 30.10 in - Calm Calm - N/A   Unknown
3:52 AM 63.0 °F - 62.1 °F 97% 30.10 in - Calm Calm - N/A   Unknown
4:52 AM 62.1 °F - 62.1 °F 100% 30.13 in - Calm Calm - N/A   Unknown
5:52 AM 61.0 °F - 61.0 °F 100% 30.13 in - Calm Calm - N/A   Unknown
6:52 AM 61.0 °F - 60.1 °F 97% 30.12 in - Calm Calm - N/A   Unknown
7:52 AM 63.0 °F - 63.0 °F 100% 30.15 in - Calm Calm - N/A   Unknown
8:52 AM 66.0 °F - 66.0 °F 100% 30.14 in - South 3.5 mph - N/A   Unknown
9:52 AM 69.1 °F - 68.0 °F 96% 30.14 in - South 5.8 mph - N/A   Unknown
10:52 AM 75.0 °F - 70.0 °F 84% 30.12 in - Variable 4.6 mph - N/A   Unknown
11:52 AM 77.0 °F - 69.1 °F 76% 30.12 in - SSE 5.8 mph - N/A   Unknown
12:52 PM 78.1 °F - 69.1 °F 74% 30.09 in - Variable 5.8 mph - N/A   Unknown
1:52 PM 80.1 °F 82.9 °F 69.1 °F 69% 30.07 in - South 8.1 mph - N/A   Unknown
2:52 PM 81.0 °F 84.4 °F 70.0 °F 69% 30.05 in - South 5.8 mph - N/A   Unknown
3:52 PM 82.9 °F 87.5 °F 71.1 °F 67% 30.03 in - SSE 6.9 mph - N/A   Unknown
4:52 PM 82.0 °F 85.9 °F 70.0 °F 67% 30.01 in - South 8.1 mph - N/A   Unknown
5:52 PM 82.0 °F 86.7 °F 72.0 °F 71% 30.00 in - South 5.8 mph - N/A   Unknown
6:52 PM 81.0 °F 85.2 °F 72.0 °F 74% 29.99 in - South 4.6 mph - N/A   Unknown
7:52 PM 78.1 °F - 71.1 °F 79% 29.97 in - SSE 3.5 mph - N/A   Unknown
8:52 PM 75.9 °F - 70.0 °F 82% 29.99 in - Calm Calm - N/A   Unknown
9:52 PM 75.9 °F - 71.1 °F 85% 29.98 in - SSE 3.5 mph - N/A   Unknown
10:52 PM 73.9 °F - 70.0 °F 87% 29.97 in - South 4.6 mph - N/A   Unknown